Theta_e
303 303 303 302 302 301 301 301 301 300 300 299 299 299 299 299 299 300 299 299 299 299 299 299 299 298 297 297 297 297 297 296 295 294 293 292 291 290 289 288 288 288 288 288 288 288 288 288 288 288 288 288 288 288 288 288 288 288 288 289 289 289 289 290 290 290 291 291 292 292 292 292 292 292 292 292 292 292 292 292 292 292 292 292 292 292
303 303 302 302 301 301 301 301 301 301 300 300 300 299 299 299 299 299 299 299 299 299 299 298 298 297 297 297 296 296 294 293 291 290 289 288 288 287 287 287 287 287 287 287 287 287 287 288 288 288 288 288 288 288 288 288 288 288 289 289 289 289 289 289 290 290 290 290 290 291 291 291 291 291 291 291 291 291 291 291 291 291 291 291 291 292
302 302 302 301 301 301 301 301 301 301 301 300 300 299 299 299 299 298 298 298 298 298 298 297 297 297 297 296 294 292 290 289 288 287 287 287 287 287 287 287 287 287 287 287 287 288 288 288 288 288 289 289 289 289 289 289 289 289 289 289 289 289 289 289 289 289 289 289 289 289 289 289 289 289 289 289 289 289 289 289 290 290 290 291 291 292
302 302 301 301 301 301 301 301 301 301 300 300 299 299 299 298 298 298 298 298 298 297 297 297 297 296 295 293 291 289 288 287 287 287 287 287 287 287 287 287 287 287 287 287 287 287 288 288 288 288 289 289 289 289 289 289 289 289 289 289 289 289 289 288 288 288 288 288 288 288 288 289 289 289 289 289 289 289 289 289 289 289 290 290 291 291
301 301 301 301 301 301 300 300 300 300 300 299 299 298 298 298 298 297 297 297 297 297 297 297 296 295 293 290 288 287 287 287 287 287 287 287 287 287 287 287 287 286 286 286 287 287 287 288 288 288 289 289 289 289 289 289 289 289 289 289 289 289 289 289 289 289 289 289 289 289 289 289 289 289 289 289 289 289 289 289 289 289 289 290 290 291
301 301 301 301 301 300 300 300 300 299 299 299 298 298 297 297 297 297 297 297 297 297 296 295 294 292 290 289 288 287 287 287 287 288 288 287 287 287 287 286 286 286 286 286 286 286 287 287 288 288 288 289 289 289 289 289 289 289 289 289 289 289 289 289 290 290 290 289 289 289 289 289 289 289 289 289 289 289 289 289 289 289 289 289 290 290
300 301 301 300 300 300 300 299 299 299 299 298 298 297 297 297 297 297 297 297 296 296 295 293 292 290 289 288 288 287 287 288 288 288 288 287 287 287 286 286 286 286 286 285 286 286 287 287 288 288 288 288 289 289 289 289 289 289 289 289 289 289 289 289 290 289 289 289 289 289 289 289 289 289 289 289 289 289 289 289 289 289 289 289 289 289
300 300 300 300 300 299 299 299 299 298 298 298 297 297 297 297 296 296 296 295 294 293 292 291 290 289 288 288 288 288 288 288 288 288 287 287 287 286 286 286 286 286 285 285 286 286 287 287 288 288 288 288 289 289 289 289 289 289 289 289 289 289 289 289 289 289 289 289 289 289 289 289 289 289 289 289 289 289 289 289 289 289 289 289 289 289
300 300 299 299 299 298 298 298 298 298 297 297 297 296 296 296 295 294 294 293 292 290 290 289 288 288 288 288 288 288 288 288 288 287 287 287 286 286 286 286 285 285 285 285 286 286 287 287 288 288 288 288 288 289 289 289 289 289 288 288 288 288 288 288 288 288 288 288 288 288 288 288 289 289 289 289 289 289 289 289 289 289 289 289 289 289
299 299 299 298 298 297 297 297 296 296 296 296 296 295 295 294 293 292 291 290 289 289 288 288 288 288 288 288 288 288 288 288 287 287 286 286 286 286 286 285 285 285 285 285 286 286 287 287 288 288 288 288 288 288 288 288 288 288 288 288 288 288 288 288 288 288 288 288 288 288 288 288 289 289 289 289 289 289 289 289 289 289 289 289 289 289
299 298 298 297 297 296 296 296 295 295 295 294 294 293 293 292 291 290 289 289 289 288 288 288 288 288 288 288 288 288 288 287 287 286 286 286 285 285 285 285 285 285 285 286 286 286 287 287 287 287 287 288 288 288 288 288 288 288 288 288 288 288 288 288 288 288 288 288 288 288 288 288 289 289 289 289 289 289 289 289 289 289 289 289 289 289
298 297 297 296 296 295 295 294 294 293 293 293 292 291 291 290 289 289 289 289 288 288 288 288 288 288 288 288 288 287 287 287 287 286 286 285 285 285 285 285 285 285 285 286 286 286 287 287 287 287 287 287 287 287 287 287 287 287 288 288 288 288 288 288 288 288 288 288 288 288 288 288 288 289 289 289 289 289 289 289 289 289 289 289 289 289
297 296 296 295 294 294 293 293 292 292 291 291 290 290 289 289 289 288 289 288 288 288 288 288 288 288 288 288 287 287 287 287 286 286 285 285 285 284 284 285 285 285 286 286 286 286 287 287 287 287 287 287 287 287 287 287 287 287 288 288 288 288 288 288 288 288 288 288 288 288 288 288 288 289 289 289 289 289 289 289 289 289 289 289 289 289
295 295 294 294 293 292 291 291 290 289 289 289 289 289 289 289 289 289 288 288 288 288 288 288 288 288 287 287 287 287 287 286 286 285 285 285 284 284 285 285 285 286 286 286 286 286 286 286 286 287 287 287 287 287 287 287 287 288 288 288 288 288 288 288 288 288 288 288 288 288 288 288 289 289 289 289 289 289 289 289 289 289 289 289 289 289
294 293 293 292 291 290 290 289 289 289 289 289 289 289 289 289 289 289 289 288 288 288 288 288 288 288 287 287 287 287 286 285 285 285 284 284 284 285 285 285 286 286 286 286 286 286 286 286 287 287 287 287 287 287 287 287 287 287 288 287 288 288 288 288 288 288 288 288 288 288 289 289 289 289 289 289 289 289 289 289 289 289 289 289 289 289
292 291 291 290 289 289 289 289 289 289 289 289 289 289 289 289 289 289 288 288 288 288 288 288 288 287 287 287 286 286 285 285 285 284 284 284 284 285 285 286 286 286 286 286 286 286 286 287 287 287 287 287 287 287 287 287 287 287 287 287 287 288 288 288 288 288 288 288 288 289 289 289 289 289 289 289 289 289 289 289 289 289 289 289 289 289
290 289 289 289 289 289 289 289 289 289 289 289 289 289 289 289 289 288 288 288 288 288 288 288 287 287 287 286 286 285 285 285 284 284 284 284 285 285 285 286 286 286 286 286 287 287 287 287 287 287 287 287 287 287 287 287 287 287 287 287 287 288 288 288 288 288 288 288 289 289 289 289 289 289 289 289 289 289 289 289 290 289 289 289 289 289
289 289 288 289 289 289 289 289 289 289 289 289 289 289 289 288 288 288 288 288 288 288 288 287 287 287 287 286 285 285 285 284 284 284 284 284 285 285 286 286 286 286 287 287 287 287 287 287 287 287 287 287 287 287 287 287 287 287 287 288 288 288 288 288 288 288 289 289 289 289 289 289 289 289 289 289 289 289 289 289 290 290 290 290 290 290
289 289 289 289 289 289 289 289 289 289 289 289 289 289 288 288 288 288 288 288 288 287 287 287 287 286 286 286 285 285 284 284 283 283 283 284 285 286 286 286 286 286 287 287 287 287 287 287 287 287 287 287 287 287 287 287 287 287 287 288 288 288 288 288 288 288 289 289 289 289 289 289 289 289 289 289 289 289 289 290 290 290 290 290 290 290
289 289 289 289 289 289 289 289 289 289 288 288 288 288 288 288 288 288 287 287 287 287 287 286 286 286 285 285 285 284 284 283 283 283 284 285 286 286 286 286 286 287 287 287 287 287 287 287 287 287 287 287 287 287 287 287 287 288 288 288 288 288 288 288 288 289 289 289 289 289 289 289 289 289 289 289 289 289 289 289 290 290 290 290 290 290
289 289 289 289 289 289 289 288 288 288 288 288 288 288 287 287 287 287 287 287 286 286 286 286 286 285 285 285 284 284 283 283 283 283 284 285 286 286 286 286 287 287 288 288 288 287 287 288 288 288 288 288 288 288 288 288 288 288 288 288 288 288 288 289 289 289 288 289 288 288 288 288 289 289 289 289 289 289 289 289 290 290 290 290 290 290
288 288 288 288 288 288 288 288 288 288 288 288 287 287 287 287 287 287 286 286 286 286 286 285 285 285 285 284 284 283 283 283 283 284 285 286 287 287 287 287 287 288 288 288 288 288 288 288 288 288 288 288 288 288 288 288 288 288 288 288 288 289 289 289 289 288 288 288 288 288 288 289 289 289 289 289 289 289 289 289 289 289 290 290 290 290
288 288 288 288 288 288 288 288 287 287 287 287 287 287 287 286 286 286 286 286 286 285 285 285 285 284 284 284 283 283 283 283 284 284 285 286 287 287 287 287 287 288 288 288 288 288 288 288 288 288 288 288 288 288 288 288 289 289 289 289 289 289 289 288 288 288 288 288 288 288 289 289 289 289 289 289 289 289 289 289 289 289 289 290 290 290
288 288 288 287 287 287 287 287 287 287 286 286 286 286 286 286 286 286 285 285 285 285 284 284 284 283 283 283 283 283 283 284 284 285 286 286 287 287 287 287 287 288 288 288 288 288 288 288 288 288 288 288 288 289 289 289 289 289 289 289 289 289 288 288 288 288 288 288 288 289 289 289 289 289 289 289 289 289 289 289 289 289 289 289 290 290
287 286 286 286 286 286 286 286 286 286 285 285 285 285 285 285 285 285 285 284 284 284 284 283 283 283 283 283 283 284 284 285 285 285 286 286 287 287 287 287 287 288 288 288 288 288 288 289 289 289 288 289 289 289 289 289 289 289 289 289 288 288 288 288 288 288 289 289 289 289 289 289 289 289 289 289 289 289 289 289 289 289 289 289 289 290
285 285 285 285 285 285 285 285 285 285 285 285 285 285 285 285 285 284 284 284 284 283 283 283 283 283 283 283 284 285 285 285 285 286 286 286 287 287 287 287 287 288 288 288 288 288 289 289 289 289 289 289 289 289 289 289 289 289 289 289 289 288 289 289 289 289 289 289 289 289 289 289 289 289 289 289 289 289 289 289 289 289 289 289 289 290
285 285 285 285 285 285 285 285 285 285 285 285 285 284 284 284 284 284 284 283 283 283 283 283 283 283 283 284 284 285 286 286 286 286 286 286 287 287 287 287 287 287 288 288 289 289 289 289 289 289 289 289 289 289 289 289 289 289 289 289 289 289 289 289 289 289 289 289 289 289 289 289 289 289 289 289 289 289 289 289 289 289 289 289 289 290
284 284 285 284 284 284 284 284 284 284 284 284 284 284 283 283 283 283 283 283 283 283 283 283 283 283 283 284 285 285 286 286 286 286 286 286 287 287 287 287 287 287 288 288 289 289 289 289 289 289 289 289 289 289 289 289 289 289 289 289 289 289 289 289 289 289 289 289 289 289 289 289 289 289 289 289 289 289 289 289 289 289 289 289 289 290
284 284 284 284 284 284 284 284 284 284 284 284 283 283 282 282 282 282 282 282 282 282 282 282 283 283 283 284 285 286 286 286 286 286 286 286 286 286 286 286 287 287 287 288 288 289 289 289 289 289 289 289 289 289 289 289 289 289 289 289 289 289 289 289 289 289 289 289 289 289 289 289 289 289 289 289 289 289 289 289 289 289 289 289 289 289
284 284 284 284 283 283 283 283 283 283 283 283 282 282 282 282 282 282 282 282 282 282 282 282 283 283 284 284 285 286 286 286 286 285 286 286 286 286 286 286 287 287 287 287 288 289 289 289 288 289 289 289 289 289 289 289 289 289 289 289 289 289 289 289 289 289 289 289 289 289 289 289 289 289 289 289 289 289 289 289 289 289 289 289 289 289
283 283 283 283 283 282 282 282 282 282 282 282 282 282 281 281 281 281 281 281 282 282 282 283 283 284 284 284 284 285 286 286 285 285 285 286 286 286 286 286 286 287 286 286 286 287 288 289 289 289 289 289 289 290 290 290 290 290 290 290 290 290 290 290 290 290 290 290 290 289 289 289 289 289 289 289 289 289 288 288 288 288 288 288 288 288
282 282 282 282 282 282 282 282 282 281 281 281 281 281 281 281 281 281 281 282 282 282 283 283 284 284 284 284 284 284 285 286 285 285 285 285 286 286 286 286 286 286 286 286 285 285 286 288 289 289 289 289 290 290 290 290 290 290 290 290 290 290 290 290 290 290 290 290 290 290 289 289 289 289 289 288 288 288 288 288 288 288 288 288 288 288
282 281 281 281 281 281 281 281 281 281 281 281 281 281 281 281 281 281 282 282 282 283 283 284 284 284 285 285 285 285 286 286 285 285 285 285 285 285 286 285 285 286 286 286 286 285 286 287 289 290 290 290 290 290 290 290 290 290 290 290 290 290 290 290 290 290 290 290 290 290 290 289 289 289 289 288 288 288 288 288 288 287 287 287 287 288
282 281 281 281 281 281 281 281 281 281 281 281 281 281 281 281 282 282 282 282 283 283 284 284 284 284 284 285 285 286 285 285 285 285 284 284 284 285 285 285 285 285 285 285 285 286 286 287 289 290 290 291 291 290 290 291 290 290 290 290 290 290 290 290 290 290 290 290 290 290 290 289 289 289 289 288 288 288 288 288 287 287 287 287 287 287
281 281 281 281 281 281 281 281 281 281 281 281 281 281 281 282 282 282 283 283 283 284 284 285 285 285 285 284 285 285 285 285 285 284 284 284 284 284 284 285 285 284 284 285 285 285 286 287 288 289 290 291 291 291 291 290 290 290 290 290 290 290 290 290 290 290 290 290 290 290 290 289 289 289 289 288 288 288 288 288 287 287 287 287 287 287
281 281 281 281 281 281 281 281 281 281 281 281 281 281 281 282 282 283 283 284 284 285 285 285 285 285 285 285 285 285 285 285 285 284 284 284 284 284 284 284 285 284 284 284 285 285 285 287 288 289 289 290 291 291 291 291 290 290 291 290 290 290 290 290 290 290 290 290 290 290 290 289 289 289 289 288 288 288 288 288 288 287 287 287 287 286
281 281 281 281 281 281 281 281 281 281 281 281 281 281 282 282 283 283 284 284 285 285 285 285 285 285 285 285 285 285 285 285 285 285 284 284 284 284 284 284 285 285 284 284 284 285 285 285 286 287 288 288 289 290 291 291 291 291 291 291 290 290 290 290 290 290 290 290 290 290 290 289 289 289 289 288 288 288 288 288 287 287 287 287 287 286
281 281 281 281 281 281 281 281 281 281 281 281 282 282 282 283 284 284 285 285 285 285 285 285 285 285 285 285 285 285 285 285 285 285 285 284 284 284 284 284 285 285 285 285 285 285 285 285 285 286 287 288 288 289 290 290 290 291 291 290 290 290 290 290 290 290 290 290 290 290 289 289 289 289 288 288 288 288 288 288 287 287 287 287 287 287
281 281 281 281 281 281 281 281 281 281 281 282 282 283 283 284 284 285 285 285 285 285 285 285 285 285 285 285 285 285 285 285 285 285 284 284 284 284 284 284 285 285 285 285 285 285 284 284 284 285 285 286 287 288 288 289 289 290 290 290 290 290 290 290 289 289 289 289 289 289 289 289 288 288 288 288 288 288 288 288 288 287 287 287 287 287
281 281 281 281 281 281 281 281 281 281 282 283 283 284 284 285 285 285 285 285 285 285 285 285 285 285 285 285 285 285 285 285 285 285 285 285 285 285 285 285 285 285 285 285 285 285 284 284 285 285 285 285 286 287 288 288 288 289 289 289 290 290 290 290 289 289 289 289 289 289 289 289 288 288 288 288 288 287 287 287 287 287 287 287 287 287
281 281 281 281 281 281 281 281 282 282 283 284 284 285 285 285 285 286 286 286 286 286 286 286 286 286 286 286 286 286 286 285 285 285 285 285 285 285 285 286 286 285 285 285 285 285 285 285 285 285 285 285 285 286 287 287 288 288 288 288 288 289 289 289 289 289 289 289 289 288 288 288 288 288 287 287 287 287 287 287 287 287 287 286 286 286
281 281 281 281 281 281 281 282 283 283 284 285 285 285 285 285 286 286 286 286 286 286 286 286 286 286 286 286 286 286 286 286 286 286 286 286 286 286 285 286 286 286 285 285 285 285 285 285 285 285 285 285 285 285 286 287 287 287 287 287 288 288 289 289 289 288 288 288 288 288 288 287 287 287 287 287 287 287 287 287 287 286 286 286 286 286
281 281 281 281 281 282 282 283 284 284 285 285 285 286 286 286 286 286 286 286 286 286 286 286 286 286 287 287 287 287 286 286 286 286 286 286 286 286 285 285 285 286 285 285 285 285 285 285 285 285 286 285 285 285 285 286 287 287 287 287 286 286 287 288 288 288 287 287 287 287 287 287 286 286 286 287 287 287 287 287 286 286 286 286 286 286
281 281 281 281 282 283 283 284 284 285 285 286 286 286 285 285 285 285 286 286 286 286 286 286 286 287 287 287 287 287 287 287 286 286 286 286 286 285 285 285 285 285 285 285 285 285 285 285 285 285 285 285 284 284 285 286 286 287 287 287 286 285 285 287 287 287 287 287 287 287 287 286 286 286 286 286 286 287 287 287 287 286 286 286 286 286
281 281 282 282 283 284 284 285 285 285 285 286 286 285 285 285 285 285 286 286 286 286 286 286 286 286 287 287 287 287 287 287 287 286 286 286 286 285 285 286 285 285 285 285 284 284 284 285 285 285 285 284 284 284 285 285 286 286 286 286 286 285 286 286 286 286 286 286 286 286 286 286 285 285 285 286 286 286 286 286 286 286 286 286 286 285
282 282 283 284 284 285 285 285 285 285 285 285 285 285 285 285 285 286 286 286 287 287 286 286 286 286 286 287 287 287 287 287 287 287 286 286 286 286 286 286 286 285 285 285 285 285 285 285 285 285 285 284 284 285 285 285 285 285 286 286 285 285 285 286 286 286 286 286 286 286 286 285 285 285 285 285 285 285 286 286 285 285 285 285 285 285
283 284 284 285 285 285 286 286 285 285 286 286 286 285 285 285 286 286 286 286 286 286 286 286 286 286 286 286 287 287 287 288 288 287 287 287 287 286 286 286 286 286 285 285 285 285 285 285 285 285 284 284 284 285 286 285 285 285 285 285 285 285 285 286 286 286 285 285 286 286 285 285 284 284 284 284 284 284 285 285 285 284 284 284 284 284
284 284 285 285 285 285 286 285 285 285 285 286 286 286 285 285 285 286 286 286 286 286 286 286 285 285 286 286 286 286 287 287 287 288 288 287 287 287 287 286 286 286 286 285 285 285 285 285 285 285 284 284 284 285 285 286 285 285 285 285 285 284 285 285 286 285 285 285 285 285 285 284 283 283 283 283 283 284 284 284 284 284 284 284 284 284
285 285 285 285 285 285 285 285 285 285 285 285 286 286 285 285 285 285 285 285 286 286 285 285 285 286 286 286 286 286 286 287 287 288 288 287 287 287 287 287 286 286 286 286 286 285 285 285 285 285 285 284 284 285 285 285 285 285 285 284 284 284 285 285 285 285 285 285 285 285 284 283 283 282 282 282 283 283 284 284 284 284 284 284 284 284
285 285 285 285 285 285 285 285 285 285 285 285 286 286 286 285 285 285 285 285 285 286 285 285 285 285 286 286 286 286 286 287 287 287 287 287 287 287 287 287 286 286 286 286 285 285 285 285 285 285 285 284 284 284 285 285 285 285 284 284 284 284 284 285 285 285 285 284 284 284 283 283 282 282 282 282 282 283 283 283 283 283 284 284 284 284
285 285 285 285 285 285 285 285 285 285 285 285 286 286 286 286 286 285 285 285 286 286 285 285 285 285 285 286 286 286 286 286 287 287 287 287 287 287 287 287 286 286 285 285 285 284 283 283 283 284 284 285 284 284 284 284 284 284 284 284 284 284 284 284 284 284 284 284 283 283 283 282 282 282 282 282 282 282 282 283 283 283 284 284 284 284
Wind_Speed
29 28 26 24 22 21 23 24 26 30 33 35 36 36 36 34 32 29 27 25 23 22 21 21 20 19 19 19 19 18 17 16 16 16 16 17 17 18 18 19 20 20 20 20 20 20 20 20 20 20 20 19 19 19 19 19 19 19 19 19 19 18 18 17 17 17 17 17 17 17 18 18 19 19 20 19 19 19 19 19 19 19 19 19 19 19
27 26 24 21 19 17 18 20 22 24 26 28 30 31 31 30 28 26 24 23 21 20 20 19 19 19 18 18 16 15 14 14 14 15 16 17 17 17 18 18 18 18 19 19 19 19 19 19 19 19 19 18 18 18 18 18 18 18 18 18 18 18 18 18 18 18 18 18 18 18 19 19 20 20 20 20 20 20 19 19 19 18 18 18 17 17
24 22 21 20 18 18 19 20 21 20 20 21 23 24 24 24 24 23 21 20 19 19 18 18 18 18 17 15 13 12 13 14 15 16 16 16 16 17 17 17 17 18 18 18 19 19 19 18 18 18 17 17 17 17 17 16 16 17 17 17 17 17 17 17 18 18 18 18 19 19 19 19 19 19 19 19 19 18 18 18 17 17 17 16 16 16
23 21 21 21 21 21 21 20 19 17 16 16 17 18 19 20 20 20 19 18 18 18 18 18 17 16 14 12 12 12 14 15 16 16 16 16 16 16 16 17 17 18 19 19 19 19 18 18 17 17 17 16 16 16 16 16 16 16 16 16 16 16 16 16 17 17 17 17 18 18 18 18 18 17 17 17 16 16 16 16 16 16 16 16 16 16
24 23 23 23 22 20 18 17 15 14 13 14 15 16 17 18 18 18 17 17 18 18 17 17 15 13 11 11 12 14 15 16 16 16 15 15 15 15 16 17 18 18 19 19 19 19 18 18 17 17 17 16 16 16 16 16 16 15 15 15 15 15 15 15 16 17 17 17 17 17 17 16 16 16 15 14 14 14 14 14 15 15 15 15 16 16
22 22 22 21 19 17 15 13 12 12 12 13 14 15 16 16 16 16 17 17 17 16 15 14 12 11 11 12 14 15 16 16 16 15 14 14 15 15 16 17 17 18 18 18 18 18 18 18 17 17 16 16 16 16 15 15 15 15 15 15 15 15 16 17 17 17 17 17 16 16 16 16 15 14 14 13 13 13 14 14 14 15 15 15 15 16
18 18 17 17 16 14 13 12 11 11 11 12 13 14 14 15 15 15 15 15 14 14 13 12 11 11 12 13 15 16 16 16 15 14 14 14 15 16 16 17 17 17 17 17 17 17 17 16 16 15 15 15 15 14 14 14 15 15 16 17 17 18 18 18 18 17 17 16 16 15 15 15 14 14 13 13 13 13 14 14 15 15 15 16 16 16
13 14 14 14 13 12 11 10 10 10 10 11 12 13 13 13 13 13 13 13 12 12 11 11 11 12 13 14 15 16 16 15 14 13 14 15 15 16 17 17 17 17 17 17 16 16 15 15 14 14 14 14 14 14 15 16 17 18 19 19 19 19 19 18 18 17 16 16 15 15 15 14 14 13 13 13 14 14 15 15 15 16 16 17 17 17
10 11 11 11 11 10 9 9 9 9 10 10 11 12 12 11 11 11 11 11 11 11 11 11 11 12 13 15 15 15 15 14 13 14 14 15 16 17 17 18 17 17 17 17 16 16 16 15 15 15 15 16 16 17 18 19 20 20 20 20 20 19 19 18 17 17 16 16 15 15 14 14 14 14 14 14 15 15 16 16 17 17 18 18 18 18
8 8 9 9 9 8 8 8 8 9 10 10 11 11 11 10 10 10 10 10 10 10 11 11 12 13 14 15 15 14 14 14 14 15 15 16 17 18 19 19 18 18 17 17 17 17 17 17 17 17 18 18 19 19 20 21 21 21 20 20 19 19 18 17 17 16 16 15 15 15 15 15 15 15 15 15 16 16 17 17 18 18 18 19 19 19
8 8 8 8 8 8 8 8 8 9 10 10 11 11 11 10 10 10 10 10 10 10 11 12 13 14 14 14 14 14 14 14 15 15 16 17 18 19 20 19 19 18 17 17 17 17 17 17 17 18 18 19 20 20 20 21 21 20 20 19 18 18 17 17 16 15 15 15 15 15 15 15 16 16 16 17 17 18 18 18 18 19 19 19 20 20
7 8 8 8 9 9 9 9 9 10 10 10 11 11 10 10 10 10 10 10 10 10 11 13 13 14 14 14 15 15 15 15 16 17 17 18 19 19 19 19 18 17 17 16 15 15 15 16 16 17 18 18 19 19 20 20 20 19 19 18 17 17 16 16 15 15 15 15 15 15 16 16 16 17 17 18 18 18 18 19 19 19 19 19 19 19
9 9 9 9 9 9 9 9 9 10 10 10 10 10 9 9 9 10 10 10 11 11 12 13 14 14 14 15 16 16 17 17 18 18 19 19 19 19 18 17 16 16 15 14 14 14 14 15 16 17 18 18 19 19 19 19 18 18 17 17 16 16 15 15 15 15 15 15 15 16 16 17 17 17 18 18 18 18 18 19 19 19 19 20 20 20
10 10 9 9 9 9 9 9 9 9 9 9 9 9 9 9 9 10 11 12 12 13 13 14 15 15 16 16 17 18 18 19 19 19 20 20 19 17 16 15 15 14 14 13 13 13 14 16 17 18 18 18 18 18 18 17 17 16 16 15 15 15 14 14 14 15 15 15 16 16 16 17 17 18 18 18 18 18 18 19 19 19 20 20 20 21
9 9 8 8 8 8 8 8 8 8 9 9 9 10 10 10 11 11 12 13 14 14 15 15 16 17 17 18 18 18 18 19 20 20 21 20 18 16 14 14 14 13 13 13 13 14 15 16 17 17 17 17 17 17 16 16 15 15 14 14 14 14 14 14 15 15 15 16 16 17 17 17 17 18 18 18 18 18 19 19 20 20 21 21 22 22
9 8 7 7 7 7 7 7 8 8 9 10 10 11 11 12 12 13 13 14 15 16 16 17 18 18 18 18 18 19 18 19 20 21 21 19 16 13 13 13 13 13 13 13 13 14 15 16 16 16 16 16 16 15 15 15 14 14 14 14 14 14 14 15 15 15 16 16 17 17 17 17 17 18 18 18 19 20 20 21 21 22 22 23 23 24
7 6 6 6 6 6 6 7 8 9 10 11 11 12 12 13 13 14 14 15 16 17 18 18 19 20 20 20 19 19 19 19 20 21 21 19 15 12 12 13 13 13 13 13 13 13 14 14 15 15 15 15 15 15 14 14 14 14 14 14 14 15 15 15 16 16 16 17 17 18 17 17 18 18 18 19 20 20 21 22 22 23 24 24 25 25
5 5 5 6 6 7 8 9 10 11 12 12 13 13 14 14 15 15 16 16 17 18 19 20 21 22 23 22 21 20 20 20 21 21 20 18 14 11 11 12 13 13 13 12 12 12 13 13 14 14 14 14 14 14 14 14 14 14 14 14 14 15 15 16 16 16 17 17 17 17 17 17 18 18 18 19 20 20 21 22 23 23 24 25 26 26
5 6 6 7 8 9 10 11 12 12 13 13 14 14 15 15 16 16 17 18 18 19 20 21 22 23 24 24 23 22 21 20 21 21 20 18 14 11 10 12 13 13 12 11 11 11 12 12 13 13 14 14 14 14 14 14 14 14 14 15 15 15 16 16 16 17 17 17 17 17 17 17 17 18 18 19 20 21 22 22 23 24 25 26 26 26
7 7 8 9 9 10 11 12 12 13 13 14 15 15 16 16 17 17 18 19 20 20 21 22 22 23 24 24 24 23 21 20 20 20 19 17 13 10 9 10 12 12 12 11 10 10 11 12 12 13 13 13 13 13 13 14 14 14 15 15 15 16 16 16 17 17 17 17 17 17 17 17 18 19 19 20 21 22 23 24 24 25 26 26 27 27
8 9 10 10 11 12 13 13 13 14 14 15 15 16 17 17 18 19 19 20 21 22 22 23 23 24 24 25 24 22 20 19 19 19 18 16 13 10 8 10 11 11 11 10 9 10 11 11 11 11 12 12 12 13 13 14 14 15 15 15 16 16 16 16 16 16 16 16 17 17 18 18 19 20 21 22 23 24 25 25 25 26 26 27 27 28
11 12 12 13 13 14 15 15 15 15 16 16 17 17 18 18 19 19 20 21 21 22 23 23 24 25 25 24 23 20 17 16 16 17 17 16 13 10 9 10 11 12 11 10 9 9 10 10 10 10 11 11 12 12 13 14 14 15 15 15 16 16 15 15 15 15 15 16 17 18 19 20 21 22 23 24 25 25 25 26 26 27 27 27 28 28
14 15 15 15 16 16 16 17 17 17 17 17 18 18 19 19 20 20 21 21 22 23 23 24 25 25 24 23 21 18 15 14 14 15 16 17 15 12 11 11 12 12 12 11 10 10 10 9 10 10 11 11 12 13 13 14 14 14 14 14 14 14 14 14 14 14 15 16 17 19 20 21 22 23 24 25 25 25 26 26 26 27 27 27 28 28
16 16 17 17 17 17 17 17 17 18 18 18 19 19 20 20 21 21 22 23 23 24 25 25 25 24 23 21 19 16 13 12 12 14 15 17 16 14 12 12 12 12 12 11 11 10 10 10 10 10 11 12 12 13 13 13 13 13 13 12 12 12 12 13 13 14 16 17 18 19 20 21 22 23 24 24 25 25 26 26 26 27 27 27 28 28
17 17 17 17 17 17 17 17 17 17 18 18 19 19 20 21 21 22 23 23 23 23 24 23 23 22 21 18 15 12 10 9 10 12 14 16 16 15 13 12 12 12 12 11 11 11 11 11 11 11 11 12 12 12 12 12 11 11 11 10 10 11 12 13 14 15 16 17 18 19 20 21 22 22 23 23 24 24 25 26 26 26 27 28 28 29
18 18 18 17 17 16 16 16 16 16 16 16 17 18 19 19 20 21 21 21 21 21 21 21 21 20 18 16 13 11 9 9 10 11 13 15 16 15 12 12 12 13 14 13 13 13 13 12 11 11 11 11 10 10 10 9 9 9 9 9 10 11 12 13 14 15 16 16 17 18 19 20 20 21 22 22 23 24 25 25 26 26 27 28 29 29
19 19 18 17 17 17 17 18 17 16 16 16 16 17 18 18 19 19 19 19 20 20 20 20 20 19 17 16 14 12 10 10 10 11 12 13 14 14 13 13 13 14 15 15 14 14 14 13 12 11 10 10 9 9 8 8 8 9 9 10 11 12 13 14 14 14 15 16 16 17 18 18 19 20 21 22 23 23 24 25 26 27 27 28 29 30
19 18 18 17 17 17 17 17 17 18 17 17 17 17 18 18 19 19 20 20 20 19 19 19 19 19 18 17 15 13 12 11 10 10 11 12 13 14 14 14 15 16 17 17 16 15 14 14 13 11 11 10 9 8 8 9 9 10 11 12 13 13 14 14 14 14 15 15 15 16 17 18 19 20 20 21 22 23 24 25 26 27 28 29 29 30
18 17 16 16 16 16 17 17 18 18 18 18 18 19 19 19 19 20 20 20 20 19 19 19 19 18 17 17 16 15 13 11 10 10 11 12 14 15 15 16 16 17 18 19 18 16 15 14 13 12 11 10 10 10 10 11 12 13 14 14 14 14 14 14 14 14 14 15 15 15 16 17 18 19 20 21 22 23 24 25 26 26 27 28 29 30
16 16 16 16 16 17 18 18 19 19 19 19 18 18 19 19 20 20 20 19 19 18 18 18 17 17 17 16 17 16 15 11 9 10 11 13 15 16 16 17 17 17 18 20 20 20 18 14 13 12 13 13 13 14 14 15 16 16 16 15 15 15 15 15 15 15 15 15 15 15 16 17 17 18 19 20 21 22 23 24 25 26 27 28 28 29
15 15 16 16 17 17 18 18 19 19 19 18 18 18 18 18 18 18 18 18 18 18 17 17 16 16 15 16 17 17 17 12 10 11 13 14 16 17 17 18 18 18 18 19 21 22 22 19 15 15 16 16 17 17 18 18 18 17 17 16 16 15 16 16 16 16 16 16 16 16 16 16 17 18 19 20 21 22 23 23 24 25 26 27 27 27
14 15 15 16 16 17 17 17 17 18 18 17 17 17 17 17 17 17 17 17 17 17 16 16 16 15 15 15 16 17 18 14 12 12 13 15 17 17 18 19 19 19 18 19 19 20 21 23 22 20 20 20 20 20 19 19 19 19 18 18 17 17 17 18 18 18 18 18 17 17 17 17 17 18 19 19 20 21 22 22 23 24 25 25 26 27
13 14 15 15 15 16 16 16 16 16 16 16 16 16 16 16 16 16 16 16 16 16 16 16 16 16 16 16 17 17 17 15 14 13 14 15 17 18 19 20 21 21 20 20 20 20 21 24 25 24 23 22 22 21 21 20 20 20 20 20 19 19 19 19 19 20 20 19 19 18 18 18 18 18 18 19 20 21 21 21 22 22 23 24 24 26
12 13 13 14 14 15 15 15 15 15 15 15 15 15 15 15 15 16 16 16 16 16 16 16 16 16 16 17 17 17 17 15 14 14 15 17 18 19 20 21 22 22 22 22 21 22 22 23 24 25 25 24 23 22 22 22 22 22 21 21 21 20 20 20 20 21 21 21 20 20 19 18 18 18 18 19 19 20 20 20 21 21 21 22 23 24
13 13 13 13 13 14 14 14 14 14 14 14 15 15 15 15 15 16 16 16 16 16 15 15 15 15 16 16 17 18 18 16 15 15 17 18 19 20 21 22 22 22 23 23 23 23 24 24 24 25 26 26 25 24 23 23 23 23 22 22 22 21 21 21 21 21 21 21 21 20 19 19 18 18 18 18 19 19 20 20 20 20 20 21 22 23
13 13 12 13 13 13 13 13 13 14 14 14 14 15 15 15 15 15 15 15 15 15 14 14 14 15 15 16 17 18 18 17 16 16 18 19 20 21 22 23 22 22 23 23 23 23 24 25 25 25 26 27 27 26 24 23 23 23 23 22 22 22 21 21 21 21 21 21 20 20 19 19 18 18 18 18 18 19 19 20 20 20 20 21 21 22
14 13 12 12 13 13 13 13 13 13 14 14 14 14 15 15 15 15 14 14 14 13 13 14 14 15 16 16 17 18 18 17 17 17 18 19 20 22 23 23 22 21 22 22 22 23 24 25 25 26 26 27 27 27 26 25 24 24 23 23 22 22 21 20 20 20 20 20 19 19 19 18 18 18 18 18 18 19 19 20 20 20 21 21 21 22
14 13 12 12 12 12 13 13 12 13 13 14 14 13 13 13 13 13 13 13 13 13 13 14 15 15 16 17 17 18 18 18 18 18 19 20 21 22 23 23 22 21 21 21 21 21 22 23 25 26 26 27 27 27 26 26 25 24 24 23 23 22 21 20 19 19 19 19 19 19 18 18 18 17 17 17 18 19 19 20 20 21 21 22 22 23
13 12 12 12 12 12 12 12 12 12 12 13 13 12 12 12 12 12 12 12 13 13 14 15 15 16 16 17 18 18 19 19 19 19 20 20 20 21 21 21 21 20 20 20 20 20 21 22 23 24 25 26 27 26 26 25 25 25 25 24 23 22 20 20 19 19 19 19 19 19 19 18 18 17 17 17 18 19 19 20 21 21 21 22 23 24
12 12 11 11 11 12 12 11 11 11 11 11 11 11 11 11 11 11 12 12 13 14 15 15 16 16 17 17 18 18 18 18 18 19 19 19 19 19 19 19 19 19 19 19 19 19 19 20 21 23 24 25 25 26 26 25 25 25 25 25 24 23 21 20 20 20 20 20 20 20 19 19 18 17 17 18 18 19 20 20 21 22 22 23 23 24
12 11 11 11 11 11 11 11 10 10 10 10 10 10 10 11 11 12 12 13 14 15 15 16 17 17 17 17 17 17 17 17 17 17 17 17 17 17 17 17 17 17 17 17 18 18 18 19 20 21 22 23 24 25 25 25 25 24 25 25 25 25 23 22 21 21 21 21 20 20 20 19 18 18 18 18 19 20 20 21 22 22 22 23 23 24
11 11 11 11 11 11 10 10 10 9 9 9 10 10 10 11 11 12 13 13 14 15 16 17 17 17 17 17 17 16 16 15 15 15 15 15 15 15 15 15 15 15 15 16 16 17 17 18 19 19 20 21 22 24 25 26 25 25 25 25 26 26 25 24 23 22 22 21 21 20 20 19 19 19 19 20 20 21 21 22 22 23 23 22 22 22
11 11 11 10 10 10 9 9 9 9 9 9 10 10 10 11 12 13 14 15 15 16 17 17 18 18 18 17 16 15 14 14 13 13 13 13 13 13 13 13 14 14 14 15 16 17 17 18 18 19 20 20 22 24 26 26 26 26 25 25 26 27 28 26 24 22 22 21 21 20 20 20 20 20 21 22 22 23 23 23 23 23 23 22 22 21
10 10 10 10 9 9 8 8 9 9 9 9 10 10 11 13 14 14 15 16 16 17 17 17 17 17 17 17 16 14 13 12 11 11 11 11 11 11 12 12 13 13 14 14 15 16 17 18 19 19 19 20 22 24 26 27 27 27 27 26 26 26 27 26 24 23 22 21 21 20 20 20 21 22 23 23 24 24 24 25 24 24 23 22 22 22
10 10 9 9 8 8 8 8 8 9 9 10 11 12 13 14 14 15 15 16 16 16 16 17 17 16 16 15 14 13 12 11 11 10 10 10 10 10 11 11 12 12 13 14 14 15 17 18 19 19 20 21 23 25 26 27 28 28 28 27 26 26 26 25 24 23 23 23 22 21 21 21 22 23 25 25 26 26 26 26 26 25 24 23 23 23
9 9 8 8 8 8 8 8 9 9 10 11 12 13 13 14 14 14 15 15 15 15 15 16 15 15 15 15 14 13 12 11 11 10 9 9 9 9 10 10 11 11 12 13 14 15 16 17 19 20 21 23 25 26 27 28 28 28 28 27 26 25 25 25 24 24 24 23 23 22 22 22 23 25 26 27 28 28 28 27 27 27 26 26 25 25
8 8 8 8 8 8 8 8 9 10 11 11 12 13 13 13 13 13 14 14 14 14 14 15 15 14 14 14 13 13 12 12 11 10 10 10 9 10 10 10 11 12 13 14 15 17 18 19 20 21 22 24 26 28 28 28 28 27 27 26 26 25 26 26 25 24 24 24 24 23 23 24 25 26 28 29 29 30 29 29 28 28 27 27 26 26
8 8 7 7 7 8 8 9 10 11 11 12 12 12 12 12 12 12 13 13 13 14 14 14 14 14 13 13 12 12 12 12 11 11 11 11 11 11 12 13 13 14 16 17 18 19 20 21 22 23 23 24 26 28 29 28 27 26 26 25 25 26 26 26 26 25 25 25 25 25 25 25 26 27 29 30 31 31 31 30 29 28 27 27 26 26
7 7 7 7 7 8 9 10 10 11 11 12 11 11 11 11 11 12 12 13 13 14 14 14 14 13 13 12 12 12 12 11 11 11 12 12 13 13 14 15 16 17 18 20 21 22 23 25 25 26 25 25 25 27 28 27 26 25 25 25 26 26 27 27 27 26 26 26 26 26 26 27 27 28 29 31 32 33 33 32 31 29 28 27 27 27
6 6 6 7 8 8 9 10 11 11 11 11 11 10 10 11 11 12 13 13 14 14 15 15 14 14 14 13 13 13 13 12 13 13 13 13 14 15 16 17 18 19 20 21 23 24 25 26 27 27 26 25 24 24 25 26 26 26 25 26 26 27 27 28 27 27 27 27 28 28 28 28 28 28 29 30 32 34 34 34 32 30 29 28 27 26
6 6 7 7 8 9 10 10 11 11 11 11 11 11 11 12 12 13 14 14 15 16 16 16 15 15 15 15 15 14 14 14 15 15 15 15 15 16 17 17 18 19 20 22 23 24 25 26 27 27 26 24 23 22 22 23 25 25 26 27 27 27 27 27 27 27 28 28 29 29 29 29 29 29 29 29 31 32 34 34 33 32 30 28 27 26
Wind_Direction
275 277 277 275 271 268 267 266 264 262 261 261 260 260 261 263 265 267 267 268 269 270 271 270 268 264 260 255 254 254 258 262 267 271 273 274 274 273 272 270 269 269 269 269 269 270 270 270 270 271 271 271 270 270 269 267 266 264 263 262 262 260 259 258 256 255 255 255 255 255 254 255 254 253 252 253 253 254 255 257 259 260 261 262 264 265
274 276 276 274 272 272 274 274 273 270 268 266 264 263 263 264 264 265 266 267 269 269 268 265 261 257 253 253 255 260 266 270 272 273 272 271 269 268 267 266 265 265 266 266 267 268 268 269 270 270 271 271 270 270 269 268 267 266 265 264 263 262 260 258 257 255 255 254 254 255 255 256 257 257 257 258 259 260 261 263 265 267 268 268 269 270
274 275 275 275 276 277 279 279 278 277 274 270 266 264 263 262 263 264 265 266 265 262 259 255 253 251 253 258 265 270 272 272 270 269 267 265 264 263 263 263 263 263 263 264 265 265 266 266 267 268 268 269 269 268 268 267 267 266 266 266 265 264 263 262 261 260 259 259 258 259 259 260 261 262 263 263 264 265 265 267 268 269 270 269 269 268
275 277 279 282 284 285 284 282 280 277 273 269 264 261 259 259 259 260 260 259 256 253 250 249 249 252 257 264 269 271 269 268 266 264 263 262 261 261 262 262 263 263 263 263 263 263 263 263 263 263 264 264 264 264 265 265 265 265 266 267 268 269 270 270 270 269 267 267 267 267 267 267 267 267 267 267 266 266 266 266 266 266 266 266 266 267
277 280 282 286 289 290 288 284 279 274 268 263 259 256 254 254 254 253 251 248 247 246 247 250 253 258 262 265 265 265 264 263 262 261 260 261 262 263 264 265 265 266 266 265 264 263 262 262 261 261 260 260 261 261 262 263 263 265 266 267 269 270 271 272 272 271 271 271 272 273 273 273 273 272 271 270 268 267 265 264 263 261 261 261 262 264
278 281 284 287 289 291 289 284 277 269 262 257 253 251 249 248 246 245 244 244 246 248 252 256 260 261 261 261 261 260 260 260 260 260 262 264 266 267 267 268 268 268 268 268 267 265 264 262 262 261 261 261 261 261 262 262 263 263 263 263 262 261 261 262 264 265 266 268 269 270 271 271 272 272 272 271 269 267 266 265 263 262 260 260 260 261
280 281 283 284 285 285 283 277 270 263 257 252 249 246 244 243 242 241 243 247 251 256 260 262 261 259 258 259 258 258 258 259 261 264 268 270 271 270 270 270 270 270 270 270 268 266 264 263 262 262 261 261 261 261 260 259 258 258 257 256 255 255 257 259 261 263 264 266 267 268 269 270 271 271 271 270 269 268 267 267 266 265 264 263 262 262
281 281 280 279 278 275 270 264 258 253 248 244 242 241 240 241 243 246 250 256 260 263 263 261 258 256 256 256 257 257 258 261 266 271 275 276 275 274 274 273 273 273 272 270 267 264 261 259 257 256 255 255 255 255 254 253 252 252 253 254 256 258 261 264 266 268 269 269 270 270 271 272 272 272 271 270 269 268 268 268 268 268 268 267 266 266
278 278 276 274 269 264 257 252 246 242 239 237 238 240 243 247 252 257 261 264 265 264 262 260 257 255 254 255 255 258 262 267 274 280 282 282 281 280 278 277 276 275 273 268 263 257 253 250 248 247 246 246 246 247 248 249 250 253 255 258 261 265 267 270 271 272 273 273 272 272 272 272 271 271 270 270 269 269 269 269 270 270 271 271 270 269
269 268 265 262 257 252 245 243 242 241 240 241 244 248 252 256 261 264 264 263 263 263 261 259 257 256 255 255 258 262 269 276 282 285 287 286 285 284 282 280 278 275 271 265 259 254 250 248 246 246 245 245 246 247 249 251 254 257 260 263 266 268 270 272 272 272 272 272 271 271 271 270 270 270 270 270 270 271 271 272 272 273 273 273 273 273
258 253 249 248 247 246 244 244 246 250 252 254 257 260 262 263 264 264 263 261 261 261 260 259 258 257 259 262 267 272 279 285 288 289 288 286 285 283 282 280 278 274 269 264 260 256 254 252 251 251 251 251 251 252 254 256 258 261 263 266 267 269 269 270 270 270 269 268 268 268 268 269 269 270 270 271 272 273 273 274 274 275 275 275 276 276
254 250 247 246 249 251 251 253 255 259 261 261 261 262 263 264 263 263 265 265 264 261 259 259 260 262 265 271 277 282 288 290 291 290 287 284 282 281 280 278 275 271 266 262 259 257 255 255 255 255 255 255 255 256 257 258 260 262 263 265 266 267 267 266 266 265 265 265 265 265 266 267 268 269 270 271 272 273 275 276 277 277 278 278 279 280
262 259 258 257 258 258 259 259 258 259 259 259 260 263 265 265 263 263 265 268 265 262 260 263 266 269 272 277 283 287 291 292 291 289 286 284 282 280 277 273 269 265 261 258 255 254 254 255 255 255 256 256 256 257 257 258 260 261 262 263 263 263 263 263 262 262 262 262 263 263 265 265 267 268 269 271 272 274 276 277 279 280 281 282 283 284
268 266 264 262 261 260 259 258 256 256 258 260 262 266 267 265 263 263 265 266 265 264 266 268 271 275 278 282 286 289 291 292 291 288 286 284 283 279 274 267 261 257 254 253 252 253 254 256 257 257 257 257 258 258 259 259 260 261 261 261 260 260 259 259 258 258 258 259 260 261 262 264 265 267 269 271 273 275 276 278 279 280 281 282 283 283
268 267 265 262 260 257 255 254 255 257 259 262 263 264 264 263 262 262 264 265 266 269 272 274 276 279 281 284 287 290 292 292 291 288 286 284 282 277 270 261 254 250 249 250 253 255 256 257 258 258 259 259 259 259 259 260 259 259 258 257 256 255 254 254 254 255 256 257 258 260 261 263 265 267 269 270 272 273 274 275 275 276 277 277 278 278
268 266 262 259 256 253 252 252 253 256 258 259 259 260 262 263 263 263 264 265 268 271 274 277 279 280 282 284 287 290 293 293 291 289 287 285 281 274 265 258 252 248 249 252 255 257 256 257 257 258 258 257 257 257 257 257 256 255 253 252 251 250 250 251 251 253 254 255 257 258 260 262 264 265 267 268 269 270 271 271 272 272 273 273 274 274
265 261 256 254 253 252 252 253 254 255 256 257 258 259 260 262 264 265 265 267 270 273 275 278 281 283 285 287 289 292 294 293 291 289 287 285 280 271 262 258 255 253 253 254 255 255 254 253 253 254 254 254 253 253 253 252 251 250 249 248 247 248 248 250 251 252 253 254 256 258 260 261 263 264 265 267 268 270 271 272 273 273 274 274 275 275
259 257 257 257 257 257 256 256 256 257 257 259 259 260 261 262 264 266 268 269 272 275 277 280 283 286 288 291 292 294 296 295 293 290 287 283 277 267 260 260 260 260 257 255 253 251 250 249 249 249 250 249 249 249 248 248 247 246 246 246 246 247 248 250 251 253 254 256 258 260 262 263 265 266 268 270 271 272 273 274 275 275 275 275 276 276
265 263 262 260 260 260 259 258 257 258 259 260 261 262 263 264 266 268 270 272 274 276 279 282 284 286 288 291 292 295 297 296 293 290 287 281 274 266 263 263 263 262 258 254 251 249 247 247 247 248 248 247 247 246 245 245 244 244 244 245 246 248 249 251 253 255 257 258 261 263 265 267 268 270 271 272 273 273 274 274 274 275 275 275 276 276
273 269 264 265 265 264 263 262 261 262 262 264 266 267 267 269 270 271 273 275 276 278 280 282 284 286 288 289 291 294 298 297 294 290 286 280 273 269 269 268 265 261 255 252 251 250 249 247 247 247 247 246 245 245 244 244 244 244 245 246 247 249 251 253 256 258 259 261 263 265 267 268 270 271 271 272 272 273 273 274 274 275 275 276 277 277
275 272 271 272 271 269 267 268 268 268 268 270 271 271 271 272 273 274 276 277 278 279 281 282 283 284 286 289 291 295 298 296 293 289 285 278 274 273 277 275 270 264 258 256 256 255 252 249 247 247 247 246 245 245 245 245 245 245 247 248 250 252 255 257 259 261 262 264 265 267 268 269 270 271 271 272 273 273 274 275 275 276 276 277 277 278
275 274 274 274 273 271 271 271 272 272 273 273 273 273 274 275 276 276 277 278 279 279 280 281 283 284 286 289 291 294 297 293 290 288 285 281 278 279 284 282 278 273 268 265 264 261 255 251 249 249 250 250 249 248 248 248 248 249 251 252 254 256 258 260 262 263 265 266 267 268 269 270 271 272 272 273 274 275 275 275 276 276 276 276 276 276
276 275 275 274 273 272 272 273 273 274 274 274 274 274 275 276 277 277 278 278 279 280 281 282 283 285 287 289 290 292 292 288 284 283 284 283 283 284 287 287 283 279 275 273 271 266 258 254 253 256 258 257 256 254 253 253 254 254 255 257 258 259 261 262 264 266 267 269 270 270 271 272 272 273 274 275 275 275 275 275 275 275 275 275 275 275
275 274 273 273 272 272 272 272 273 274 274 274 274 274 275 276 277 277 278 279 279 280 281 283 284 285 286 287 287 286 284 280 279 281 284 284 285 286 289 290 287 282 277 277 276 273 266 261 261 264 265 264 262 260 259 258 258 259 258 259 259 261 263 265 267 269 270 271 272 272 273 273 274 275 275 275 275 275 275 275 274 274 274 274 273 273
273 273 273 273 273 272 271 271 271 273 275 276 276 277 277 278 278 278 278 279 280 282 283 284 285 286 287 286 284 280 276 273 277 283 286 287 286 287 291 294 292 287 281 280 280 279 275 271 270 270 271 268 266 264 262 261 260 259 259 260 262 265 268 270 272 273 274 274 274 275 275 275 275 275 275 275 275 275 274 274 274 274 273 273 273 272
274 275 275 275 274 273 271 269 268 269 271 274 277 278 280 280 280 281 281 282 283 284 285 286 288 289 290 289 286 282 279 278 282 286 288 289 288 288 292 297 297 292 288 286 286 287 285 280 278 277 276 273 269 266 264 262 261 261 263 266 270 273 276 277 277 278 277 278 277 277 277 277 276 276 276 275 275 275 275 274 274 274 273 273 272 272
277 278 279 279 279 278 278 277 275 273 270 271 273 276 279 280 281 280 280 280 281 283 285 287 288 290 292 291 290 288 287 291 294 293 291 289 290 291 296 301 302 300 296 294 294 294 294 290 288 285 283 278 274 271 268 267 268 271 275 278 281 282 283 283 283 282 282 281 281 280 279 279 278 277 277 276 276 275 275 274 274 274 273 273 273 273
278 280 282 283 283 283 282 281 280 277 275 272 272 274 276 277 276 276 275 277 279 281 282 283 285 288 291 293 293 292 292 300 303 300 295 292 292 295 300 303 306 306 303 300 298 296 296 296 294 290 288 284 281 278 278 280 282 285 288 289 290 290 289 288 287 286 285 284 283 282 281 280 279 278 277 276 276 275 275 274 274 274 273 273 273 274
278 281 283 283 283 282 280 278 276 275 273 273 273 273 274 275 274 275 276 278 279 279 280 281 284 286 289 291 292 293 295 303 307 304 299 296 295 297 300 303 306 308 307 305 301 298 298 299 298 295 292 290 289 289 291 293 295 296 297 296 295 294 293 291 290 288 286 285 283 282 282 280 280 279 278 277 276 275 274 274 273 273 273 273 274 275
275 277 278 278 277 277 275 274 274 273 273 273 274 274 274 274 275 276 277 279 279 278 279 280 282 284 287 291 293 294 297 303 306 305 303 298 296 297 299 302 305 308 310 311 308 306 304 302 300 298 297 296 296 298 299 300 300 300 300 298 297 296 294 292 290 288 287 286 285 284 283 283 282 281 279 278 277 275 274 273 273 272 273 273 274 275
273 273 273 273 273 272 272 273 274 274 275 275 275 275 274 274 274 275 277 278 278 277 278 279 281 283 286 290 291 292 296 301 304 303 303 298 296 298 300 303 305 308 311 313 313 311 308 305 301 297 297 297 298 299 299 300 301 301 301 300 298 297 296 295 293 292 290 289 289 288 287 286 284 283 281 279 277 275 274 273 272 272 272 273 274 275
276 275 275 274 274 273 273 273 274 275 276 276 276 275 274 273 273 273 274 275 275 276 276 277 279 280 282 284 285 287 292 298 302 302 302 299 298 299 302 304 306 308 310 311 311 308 306 305 304 301 300 300 300 300 300 301 303 303 303 303 302 301 300 299 298 297 295 294 292 291 290 289 287 284 282 279 277 275 273 271 270 270 271 272 273 274
281 279 278 277 276 276 275 275 274 274 275 274 274 273 273 272 271 270 270 270 270 270 271 274 276 278 279 281 282 286 291 297 302 303 302 300 299 299 301 303 304 305 307 308 307 304 302 303 304 304 303 302 302 302 302 303 304 306 306 305 304 303 302 302 301 299 297 296 294 293 291 290 287 285 281 278 275 272 270 268 268 268 269 271 273 274
284 281 279 277 276 275 275 275 275 274 274 272 271 271 270 268 267 266 265 265 266 266 267 269 272 275 278 281 284 289 294 298 302 303 302 299 297 297 299 300 302 303 304 304 304 303 302 302 303 303 303 302 301 302 303 304 305 306 306 306 305 304 303 302 301 299 297 295 293 292 290 289 286 283 280 276 272 270 267 265 265 265 266 269 272 274
289 285 281 278 276 275 274 275 275 274 273 272 270 269 267 265 264 263 263 263 264 266 268 270 272 276 279 282 286 290 295 298 300 299 297 295 294 295 296 297 298 300 300 300 301 301 301 301 301 302 302 301 300 301 302 305 306 306 306 306 305 304 303 302 300 298 296 294 292 290 289 287 285 282 278 274 270 267 265 264 263 264 265 268 270 273
293 290 286 283 280 278 277 276 276 276 274 272 270 268 267 265 265 265 265 265 266 268 270 273 277 280 282 284 287 290 293 296 297 294 292 291 291 292 292 294 295 296 296 296 297 298 299 300 300 300 300 300 300 301 302 304 305 305 305 305 304 303 302 302 300 298 295 293 291 289 287 286 284 281 277 274 271 268 266 265 265 265 266 267 269 271
295 292 288 285 282 280 280 279 279 278 277 275 272 270 268 268 268 269 269 270 270 272 275 277 280 283 285 287 289 291 294 296 296 293 291 290 290 289 289 290 291 291 290 291 293 295 297 298 299 299 299 299 300 302 303 305 305 304 305 305 304 304 303 302 300 298 296 294 291 290 288 287 285 282 278 275 272 270 268 267 267 267 268 268 268 269
294 291 288 286 284 283 283 282 281 281 279 278 275 272 270 270 271 273 274 274 276 277 279 281 282 284 286 288 290 292 294 295 294 293 290 288 286 285 284 285 286 286 287 288 290 292 294 295 297 298 299 299 300 302 305 306 306 306 305 305 304 304 304 304 302 300 298 296 294 292 290 289 287 284 280 277 274 272 270 269 269 268 268 269 268 268
293 291 290 288 286 286 286 285 284 281 279 278 277 275 274 273 274 275 277 278 279 280 281 282 283 285 286 288 289 290 290 291 291 289 286 283 281 279 279 280 282 284 286 287 288 289 291 292 293 295 297 300 302 304 306 307 308 308 307 305 304 304 306 306 305 303 301 300 298 296 293 291 289 287 284 281 278 276 275 274 273 272 273 273 272 272
294 294 293 291 289 289 289 288 285 282 279 278 278 278 277 276 276 276 277 279 280 281 282 283 284 286 287 287 287 286 286 285 284 282 280 278 277 277 278 279 281 284 286 286 287 288 290 291 292 294 297 300 303 305 307 307 308 309 309 309 308 308 308 308 306 304 303 301 300 299 297 295 293 291 288 285 283 282 281 280 279 279 279 280 280 279
298 297 295 292 290 289 288 287 285 283 281 281 280 280 279 279 279 279 279 280 281 283 284 285 286 286 286 287 286 285 284 282 280 279 277 277 277 278 279 281 283 285 286 287 288 289 290 291 293 296 299 301 304 305 305 306 307 309 310 310 310 309 308 307 306 305 304 303 302 302 301 299 298 296 293 290 288 286 285 286 286 285 285 285 285 285
299 297 294 291 289 288 286 286 285 285 285 284 284 283 283 282 282 282 283 284 285 286 287 288 288 289 289 288 287 286 285 283 282 280 279 278 278 278 280 282 284 286 288 289 290 291 293 294 296 298 301 304 305 305 304 305 306 307 308 309 310 309 307 306 306 307 307 306 304 304 304 304 303 301 298 295 292 290 289 288 289 289 289 288 287 287
296 293 291 289 287 285 284 284 285 285 285 285 286 287 287 287 287 288 289 290 291 291 291 292 292 292 290 289 288 288 287 286 284 282 280 279 279 280 281 283 285 287 290 292 293 294 296 297 299 301 303 305 305 304 303 305 306 307 308 309 310 310 309 308 308 308 307 306 306 306 307 308 307 304 301 297 295 293 292 292 291 291 291 291 291 290
292 291 290 288 287 285 284 284 285 286 287 289 292 293 292 292 293 294 295 295 294 294 294 294 294 293 292 291 292 292 292 290 289 286 284 283 282 283 284 286 287 289 291 295 296 298 300 301 302 303 306 306 305 303 303 304 306 308 308 309 309 307 305 306 308 309 308 308 308 309 310 311 309 306 302 300 298 297 296 296 296 296 296 296 297 296
291 290 289 290 289 288 287 288 289 290 293 296 298 298 297 297 297 298 298 298 298 297 297 297 297 298 298 297 298 299 299 298 296 293 291 289 288 287 288 288 290 292 294 297 298 299 301 302 304 306 307 306 303 302 302 304 306 308 309 309 308 306 305 306 308 309 309 310 311 311 312 312 311 308 305 303 302 302 302 302 302 302 302 303 303 302
293 292 291 291 290 290 290 290 293 296 298 301 301 301 300 301 301 301 300 301 301 301 301 301 302 304 305 305 306 305 304 302 301 300 298 296 294 293 293 293 295 297 300 301 302 303 303 304 306 308 308 306 304 302 302 304 305 307 308 308 307 306 305 306 307 309 310 310 311 312 314 313 311 309 307 306 306 306 305 304 305 305 305 305 304 304
295 293 291 290 290 290 292 295 298 301 303 304 304 304 304 305 305 304 304 304 305 306 306 307 308 309 309 309 310 310 308 305 304 304 304 305 304 303 304 305 306 308 309 309 309 308 308 308 309 309 307 305 303 303 303 304 305 305 306 307 307 306 305 306 307 309 311 311 312 313 315 314 312 310 309 308 307 306 305 304 303 302 303 303 303 303
292 290 289 289 291 294 297 301 304 305 305 305 305 307 307 309 310 311 311 311 312 312 313 314 314 313 311 311 311 312 312 310 308 308 311 313 313 314 315 316 317 317 316 315 314 313 312 312 311 309 307 304 302 302 304 305 305 305 305 306 306 305 306 307 309 311 311 312 312 313 314 313 311 309 308 307 305 303 302 302 301 300 300 300 300 300
288 288 288 291 295 299 303 306 308 307 306 305 306 309 312 314 316 318 318 318 318 318 319 319 318 317 316 316 316 317 317 316 314 315 317 319 320 321 321 321 322 321 319 318 316 316 315 314 312 310 308 306 304 304 305 307 307 306 305 305 304 305 306 307 309 311 312 312 312 312 312 311 309 307 306 304 302 301 301 300 300 298 297 297 296 296
284 286 289 294 299 304 308 310 311 311 310 309 310 313 317 319 321 322 323 323 323 323 323 323 323 322 321 321 322 323 323 322 320 320 322 322 323 323 323 323 322 322 321 319 319 318 317 315 313 311 309 307 305 304 304 306 307 306 305 303 303 304 305 306 308 309 311 310 310 310 308 307 305 302 301 299 298 298 298 298 296 295 295 295 295 295
281 284 290 297 303 307 310 312 313 314 315 315 316 318 321 323 324 325 326 326 326 326 327 327 327 325 323 324 324 325 324 324 323 323 323 323 323 322 321 321 321 321 321 320 320 319 318 316 313 310 307 305 304 304 302 303 304 304 302 301 302 302 302 303 305 307 308 307 306 305 303 302 299 297 295 294 293 293 293 294 294 294 295 295 296 297